ISS (ZARYA), 25544

Orbit data source: Space-Track

The International Space Station (ISS) is a collaborative project involving NASA, Roscosmos, ESA, JAXA, and CSA. It is the largest human-made structure in low Earth orbit (LEO). It serves as a microgravity laboratory where scientific research is conducted in various fields, such as astrobiology, astronomy, meteorology, and physics. Astronauts have continuously inhabited the ISS since Nov 2000, and the space station supports testing spacecraft systems and equipment needed for long-duration missions to the Moon and Mars.

Loading next visibility...
Identifier
25544, 1998-067A
Orbit
LEO
Country
Flag of CISCIS
Related business
Manufacturer
Khrunichev
Mission
Operational Civil Spaceship
Bus & Motor
77KS, Unknown motor
Mass
20,351 kg wet, ~19,000 kg dry
Launch date (UTC)
1998-11-20 (27 years ago)
Launch vehicle
PROTON-K
Launch site
Tyuratam Missile And Space Complex (TTMTR)
Object type
Payload
Rocket body
Debris
Shape & HBR
Irr, 66.1 m
Radar Cross Section
5762.400 m², Large (>1 m²)

Expand to show TLE details & history
Last TLE update: 22 hours ago

TLE from 22 hours ago
0 ISS (ZARYA)
1 25544U 98067A   25315.25818480  .00012468  00000-0  22984-3 0  9991
2 25544  51.6338 298.3179 0004133  57.8977 302.2413 15.49525392537972
Epoch: 2025-11-11T06:11Z
TLE epoch observation values (Epoch: 2025-11-11T06:11:47.166Z)
Latitude
0.00001°
Longitude
154.72406°
Altitude
417.356 km
Speed
7.663 km/s
True Right ascension
19h 53m 16s
True Declination
0° 00' 00"
Sunlit
Object was in daylight at epoch
Visualization orbit readout
Latitude
Unknown
Longitude
Unknown
Altitude
Unknown
Speed
Unknown
Apparent Right ascension
Unknown
Apparent Declination
Unknown
Sunlit
N/A
Visualization observer readout
Local Sidereal Time
00:56:12
Azimuth
Unknown
Elevation
Unknown
Doppler factor
Unknown
Orbital elements
Apogee altitude
421.431 km
Perigee altitude
415.813 km
Semi-major axis
6,796.759 km
Eccentricity
0.00041
Inclination
51.6338°
RAAN
298.3179°
Arg. of periapsis
57.8977°
True anomaly
302.20123°
Mean anomaly
302.2413°
Eccentric anomaly
302.22127°
Mean motion
3.87338 °/min
Orbital period
92.94 mins
BSTAR
0.00022984
Loading maneuver chart data...
Computing Atmospheric mass density...

Documentation

Showing up to 5 results
|